Photometre #356[Polarized_P] Kyiv AOT

File : 20220925_356.hum

25/09/2022,04:44:38,TEMP=6.0,BA=5.60,STAT.A=Abs.,ExtBa=13.22
25/09/2022,04:48:43,TEMP=6.3,BA=5.60,STAT.A=Abs.,ExtBa=13.22
25/09/2022,04:53:29,TEMP=6.6,BA=5.52,STAT.A=Abs.,ExtBa=13.35
25/09/2022,04:59:10,TEMP=6.8,BA=5.52,STAT.A=Abs.,ExtBa=13.62
25/09/2022,05:06:02,TEMP=7.1,BA=5.56,STAT.A=Abs.,ExtBa=13.88
25/09/2022,05:14:31,TEMP=7.5,BA=5.64,STAT.A=Abs.,ExtBa=14.10
25/09/2022,05:25:19,TEMP=7.8,BA=5.64,STAT.B=Abs.,ExtBa=14.26
25/09/2022,05:31:53,TEMP=8.4,BA=5.60,STAT.A=Abs.,ExtBa=13.64
25/09/2022,05:36:20,TEMP=8.3,BA=5.60,STAT.A=Abs.,ExtBa=14.15
25/09/2022,05:42:56,TEMP=8.5,BA=5.64,STAT.A=Abs.,ExtBa=14.38
25/09/2022,05:50:29,TEMP=8.9,BA=5.64,STAT.A=Abs.,ExtBa=14.45
25/09/2022,05:59:14,TEMP=9.4,BA=5.64,STAT.C=Abs.,ExtBa=14.52
25/09/2022,06:11:28,TEMP=11.6,BA=5.60,STAT.A=Abs.,ExtBa=14.43
25/09/2022,06:21:45,TEMP=10.7,BA=5.64,STAT.A=Abs.,ExtBa=14.63
25/09/2022,06:36:42,TEMP=11.5,BA=5.64,STAT.A=Abs.,ExtBa=14.63
25/09/2022,06:50:26,TEMP=12.1,BA=5.64,STAT.F
25/09/2022,07:05:24,TEMP=13.1,BA=5.60,STAT.D=Abs.,ExtBa=14.59
25/09/2022,07:20:24,TEMP=13.3,BA=5.64,STAT.D=Abs.,ExtBa=14.51
25/09/2022,07:35:24,TEMP=14.1,BA=5.60,STAT.D=Abs.,ExtBa=14.48
25/09/2022,07:50:26,TEMP=15.0,BA=5.60,STAT.F
25/09/2022,08:05:24,TEMP=15.3,BA=5.56,STAT.D=Abs.,ExtBa=14.39
25/09/2022,08:20:24,TEMP=15.5,BA=5.60,STAT.D=Abs.,ExtBa=14.36
25/09/2022,08:35:25,TEMP=16.2,BA=5.60,STAT.D=Abs.,ExtBa=14.32
25/09/2022,08:50:26,TEMP=16.2,BA=5.60,STAT.F
25/09/2022,09:05:25,TEMP=16.4,BA=5.60,STAT.D=Abs.,ExtBa=14.26
25/09/2022,09:20:25,TEMP=16.8,BA=5.60,STAT.D=Abs.,ExtBa=14.25
25/09/2022,09:35:25,TEMP=18.0,BA=5.60,STAT.D=Abs.,ExtBa=14.24
25/09/2022,09:50:26,TEMP=18.5,BA=5.60,STAT.F
25/09/2022,10:05:25,TEMP=18.6,BA=5.52,STAT.D=Abs.,ExtBa=14.21
25/09/2022,10:20:25,TEMP=17.8,BA=5.60,STAT.D=Abs.,ExtBa=14.20
25/09/2022,10:35:25,TEMP=17.9,BA=5.60,STAT.D=Abs.,ExtBa=14.16
25/09/2022,10:50:26,TEMP=17.2,BA=5.60,STAT.F
25/09/2022,11:05:25,TEMP=16.1,BA=5.60,STAT.D=Abs.,ExtBa=14.20
25/09/2022,11:20:24,TEMP=15.6,BA=5.60,STAT.D=Abs.,ExtBa=13.86
25/09/2022,11:35:24,TEMP=16.4,BA=5.60,STAT.D=Abs.,ExtBa=14.25
25/09/2022,11:50:26,TEMP=16.3,BA=5.60,STAT.F
25/09/2022,12:05:24,TEMP=16.3,BA=5.60,STAT.D=Abs.,ExtBa=14.20
25/09/2022,12:20:24,TEMP=16.6,BA=5.60,STAT.D=Abs.,ExtBa=13.73
25/09/2022,12:35:24,TEMP=16.5,BA=5.60,STAT.D=Abs.,ExtBa=14.27
25/09/2022,12:50:26,TEMP=16.3,BA=5.60,STAT.F
25/09/2022,13:04:10,TEMP=16.0,BA=5.60,STAT.A=Abs.,ExtBa=14.31
25/09/2022,13:19:06,TEMP=16.1,BA=5.60,STAT.A=Abs.,ExtBa=13.84
25/09/2022,13:31:21,TEMP=16.1,BA=5.60,STAT.A=Abs.,ExtBa=13.96
25/09/2022,13:41:36,TEMP=16.1,BA=5.60,STAT.C=Abs.,ExtBa=13.83
25/09/2022,13:54:05,TEMP=16.9,BA=5.48,STAT.A=Abs.,ExtBa=12.38
25/09/2022,13:57:54,TEMP=16.0,BA=5.48,STAT.A=Abs.,ExtBa=12.52
25/09/2022,14:04:30,TEMP=15.6,BA=5.60,STAT.A=Abs.,ExtBa=12.70
25/09/2022,14:10:20,TEMP=15.5,BA=5.60,STAT.A=Abs.,ExtBa=12.82
25/09/2022,14:15:31,TEMP=15.3,BA=5.60,STAT.B=Abs.,ExtBa=12.89
25/09/2022,14:26:19,TEMP=15.0,BA=5.48,STAT.A=Abs.,ExtBa=12.47
25/09/2022,14:34:48,TEMP=14.6,BA=5.60,STAT.A=Abs.,ExtBa=12.47
25/09/2022,14:41:40,TEMP=14.3,BA=5.60,STAT.A=Abs.,ExtBa=12.41
25/09/2022,14:47:21,TEMP=14.1,BA=5.60,STAT.A=Abs.,ExtBa=12.40
25/09/2022,14:52:07,TEMP=14.0,BA=5.60,STAT.A=Abs.,ExtBa=12.39
25/09/2022,14:57:09,TEMP=13.8,BA=5.60,STAT.A=Abs.,ExtBa=12.38